Other Public Products
Issued by NWS Grand Forks, ND

Home | Current Version | Previous Version | Text Only | Print | Product List | Glossary Off
Versions: 1 2 3 4 5 6 7 8 9 10 11 12 13 14 15 16 17 18 19 20 21 22 23 24 25 26 27 28 29 30 31 32 33 34 35 36 37 38 39 40 41 42 43 44 45 46 47 48 49 50

000
FPUS83 KFGF 022131
OPUFGF
PRAIRIE TO PINES WEATHER ROUNDUP
NATIONAL WEATHER SERVICE EASTERN NORTH DAKOTA/GRAND FORKS ND
400 PM CDT SUN AUG 02 2015

 **SATELLITE DATA USED TO AUGMENT SKY COVER AT AUTOMATED STATIONS**
 *****  WEATHER ACROSS EASTERN NORTH DAKOTA  *****

CITY           SKY/WX    TMP DP  RH WIND       PRES   REMARKS
GRAND FORKS    MOSUNNY   77  47  34 NW16G23   29.82S
GRAND FORKS AF SUNNY     75  49  38 NW13G23   29.83F
GRAND CITY NWS NOT AVBL
BUXTON         NOT AVBL
DEVILS LAKE    MOSUNNY   75  46  35 NW16      29.87F
FARGO          MOSUNNY   80  52  37 NW18G25   29.83S
WAHPETON ARPT  PTCLDY    79  50  36 N18G24    29.83S
$$

 *****  WEATHER ACROSS CENTRAL AND WESTERN NORTH DAKOTA  *****

CITY           SKY/WX    TMP DP  RH WIND       PRES   REMARKS
JAMESTOWN      SUNNY     77  55  46 N15       29.89S
BISMARCK       SUNNY     79  53  40 N9G24     29.94S
MINOT          MOSUNNY   79  48  33 W13G20    29.94S
MINOT AFB      MOSUNNY   81  48  32 NW14G23   29.92F
GARRISON         N/A     77  53  43 N15       29.95F
WILLISTON      SUNNY     81  48  31 N9G17     29.99F
DICKINSON      SUNNY     81  46  29 NW13G22   29.98F
HETTINGER      SUNNY     83  47  28 N9        30.00S
$$

 *****  OTHER OBSERVATIONS NORTHEAST NORTH DAKOTA  *****

CITY           SKY/WX    TMP DP  RH WIND       PRES   REMARKS
WALHALLA       FAIR      73  48  40 MISG      29.82F
LANGDON        FAIR      75  46  35 NW18G24   29.86F
CAVALIER       FAIR      75  46  35 NW15G23   29.82S
GRAFTON        FAIR      75  46  35 NW13G21   29.82F
CANDO          FAIR      75  50  41 NW15G24   29.89F
FORT TOTTEN      N/A     76  51  40 NW7       29.95S
ROLLA          FAIR      72  50  46 NW17      29.92S
RUGBY          NOT AVBL
 ***** THE ABOVE OBSERVATIONS ARE NON NWS ARE NOT QUALITY
        CONTROLLED AND MAY MIS-REPORT RAIN FOR SNOW...
$$

 *****  OTHER OBSERVATIONS SOUTHEAST NORTH DAKOTA *****

CITY           SKY/WX    TMP DP  RH WIND       PRES   REMARKS
COOPERSTOWN    NOT AVBL
VALLEY CITY    FAIR      75  50  41 NW18G24   29.88S
OAKES            N/A     79  57  47 NW16G22   29.87S
GWINNER        FAIR      77  55  47 N14G20    29.87S
SHEYENNE NWR     N/A     79  56  45 N12       29.95S
BUFFALO        NOT AVBL
WYNDMERE         N/A     81  57  44 N14         N/A
 ***** THE ABOVE OBSERVATIONS ARE NON NWS ARE NOT QUALITY
       CONTROLLED AND MAY MIS-REPORT RAIN FOR SNOW...
$$

  *****  WEATHER ACROSS NORTHERN MINNESOTA  *****

CITY           SKY/WX    TMP DP  RH WIND       PRES   REMARKS
FLAG ISLAND    SUNNY     70  45  40 NW24      29.73S
WARROAD        MOSUNNY   72  52  49 W15       29.76S
ROSEAU         SUNNY     73  50  43 NW16G23   29.77S
HALLOCK        SUNNY     75  39  27 N20G25    29.80S
THF RVR FALLS  SUNNY     73  45  35 NW15G22   29.82R
HALSTAD        NOT AVBL
FOSSTON        MOSUNNY   75  45  33 NW12G22   29.82S
BAUDETTE       MOSUNNY   69  44  40 NW18G28   29.74S
WASKISH        MOSUNNY   72  52  49 W15G23    29.75S
CROOKSTON      SUNNY     75  46  35 N15G21    29.83S
$$
  *****  WEATHER ACROSS CENTRAL AND WEST MINNESOTA  *****

CITY           SKY/WX    TMP DP  RH WIND       PRES   REMARKS
BEMIDJI        MOSUNNY   73  47  39 NW14G22   29.79S
PARK RAPIDS    MOSUNNY   77  47  34 NW22G29   29.80R
WADENA         MOSUNNY   73  50  43 NW20G28   29.81R
DETROIT LAKES  SUNNY     73  50  43 NW17      29.84S
MOORHEAD       MOSUNNY   75  54  46 NW17G24   29.83F
FERGUS FALLS   SUNNY     75  54  46 N16G24    29.81F
ELBOW LAKE     FAIR      75  58  54 NW15G21   29.83S
MORRIS MN      MOSUNNY   79  57  47 N18G24    29.82S
STAPLES        MOSUNNY   75  46  35 NW20      29.79R
WHEATON        NOT AVBL
$$
  *****  WEATHER ELSEWHERE ACROSS MINNESOTA  *****

CITY           SKY/WX    TMP DP  RH WIND       PRES   REMARKS
DULUTH         MOSUNNY   74  56  53 NW21G26   29.69R
INTRNTL FALLS  MOSUNNY   72  45  37 W18G30    29.71S
ELY            MOSUNNY   72  48  43 NW15G24   29.68S
CLOQUET        MOSUNNY   75  54  46 NW13G23   29.70R
BRAINERD       MOSUNNY   78  51  38 NW16G25   29.76R
HIBBING        MOSUNNY   73  51  46 NW21G30   29.71S
ALEXANDRIA     MOSUNNY   77  54  44 NW16G26   29.83R
SAINT CLOUD    MOSUNNY   80  57  45 NW14G22   29.74R
MINNEAPOLIS    MOSUNNY   84  61  45 NW17G24   29.70S
$$

  *****  WEATHER ACROSS SOUTH DAKOTA  *****

CITY           SKY/WX    TMP DP  RH WIND       PRES   REMARKS
SIOUX FALLS    SUNNY     85  62  46 N10       29.84S
BROOKINGS      SUNNY     81  57  44 NW17      29.87S
WATERTOWN      SUNNY     79  58  48 N17G24    29.86F
HURON          SUNNY     84  60  44 N10       29.86S
SISSETON         N/A     78  57  48 N15       29.84S
ABERDEEN       SUNNY     82  56  40 N15       29.88R
MITCHELL       SUNNY     84  60  44 NE13G22   29.87S
PIERRE         SUNNY     88  51  28 N12G18    29.90S
MOBRIDGE       SUNNY     84  55  36 N14G21    29.91R
RAPID CITY     SUNNY     85  53  33 NE7       30.00F
$$

  *****  SOME WEATHER IN NEARBY STATES *****

CITY           SKY/WX    TMP DP  RH WIND       PRES   REMARKS
GLASGOW MT     SUNNY     82  46  28 VRB7      30.01F
GREAT FALLS MT MOSUNNY   82  50  32 MISG      30.03F
CHEYENNE WY    MOSUNNY   86  45  23 S13       30.15S
SCOTTSBLUFF NE MOSUNNY   85  51  31 NE12G25   30.01R
OMAHA NE       MOSUNNY   96  73  47 SW14G21   29.77F HX 105
DES MOINES IA  MOSUNNY   93  71  48 W16G25    29.75F HX 100
DAVENPORT IA   MOSUNNY   88  73  61 SW17G26   29.75F HX  95
CHICAGO IL     PTSUNNY   87  72  60 SW18G25   29.71F HX  93
EAU CLAIRE WI  PTSUNNY   82  65  56 NW18G24   29.65R
LA CROSSE WI   SUNNY     90  65  43 W18G32    29.62R HX  92
$$

  *****  SOME NATIONAL WEATHER *****

CITY           SKY/WX    TMP DP  RH WIND       PRES   REMARKS
LA GUARDIA NY  PTSUNNY   86  59  39 S14       29.88S
RALEIGH NC     MOSUNNY   90  58  33 E5        29.95S
ATLANTA GA     MOSUNNY   93  62  35 E6        29.90F HX  93
NEW ORLEANS LA MOSUNNY   94  61  33 W9        29.87F HX  94
OKLAHOMA CITY  PTSUNNY   86  70  58 SE13      29.93F HX  90
ALBUQUERQUE NM PTSUNNY   82  51  34 SW7       30.12F
SALT LAKE CITY PTSUNNY   91  33  12 W10       29.95F
LOS ANGELES CA MOSUNNY   76  65  68 W13       29.90F
BOISE ID       MOSUNNY   98  41  14 NW8       29.86F HX  93
SEATTLE WA     CLOUDY    78  54  43 W7        29.95R
$$

*** WEATHER ACROSS MANITOBA...SASKATCHEWAN AND ONTARIO ***
                ***ONTARIO***

CITY           SKY/WX    TMP DP  RH WIND       PRES   REMARKS
GERALDTON      PTSUNNY   70  45  40 W13G21    29.53
THUNDER BAY    PTSUNNY   77  43  29 NW17G24   29.57S
SIOUX LOOKOUT  PTSUNNY   63  50  63 NW12G24   29.64S
TORONTO        CLOUDY    82  59  44 SW16G26   29.73F
BIG TROUT LK   CLOUDY    55  50  82 NW13G20   29.52
PICKLE LAKE    LGT RAIN  57  48  72 W18G28    29.57S
DRYDEN         LGT RAIN  61  52  72 NW20G30   29.69R
KENORA         PTSUNNY   64  48  55 NW16G30   29.73S
$$
                *** MANITOBA***

CITY           SKY/WX    TMP DP  RH WIND       PRES   REMARKS
BRANDON        MOSUNNY   75  46  35 NW22G28   29.88S
DAUPHIN        SUNNY     75  43  31 N18G25    29.83F
ISLAND LAKE    LGT RAIN  55  52  88 NW8       29.65R
PILOT MOUND      N/A     72  46  40 NW18G29     N/A
THE PAS        PTSUNNY   66  48  52 N17G23    29.84S
THOMPSON       LGT RAIN  59  48  67 N15G26    29.73S
WINNIPEG       MOSUNNY   73  45  35 NW26G39   29.79S
LYNN LAKE      CLOUDY    59  46  63 NW15G22   29.85S
CHURCHILL      LGT RAIN  46  46 100 N23       29.68R FOG
GILLAM         DRZL/FOG  52  50  93 NW20      29.64R VSB 1
$$
                ***SASKATCHEWAN***

CITY           SKY/WX    TMP DP  RH WIND       PRES   REMARKS
ESTEVAN        MOSUNNY   79  50  36 NW17G23   29.97F
KINDERSLEY     MOSUNNY   77  48  36 NE9       30.02F
LLOYDMINSTER   PTSUNNY   72  48  43 VRB5      30.03F
PRINCE ALBERT  MOSUNNY   75  52  43 NW13G25   29.96S
REGINA         MOSUNNY   77  48  36 NW13G20   30.01S



USA.gov is the U.S. government's official web portal to all federal, state and local government web resources and services.